Regional Weather Roundup
Issued by NWS

Home | Current Version | Previous Version | Text Only | Print | Product List | Glossary On
Versions: 1 2 3 4 5 6 7 8 9 10 11 12 13 14 15 16 17 18 19 20 21 22 23 24 25 26 27 28 29 30 31 32 33 34 35 36 37 38 39 40 41 42 43 44 45 46 47 48 49 50
000
ASUS45 KSLC 272110
RWRUT

UTAH REGIONAL WEATHER ROUNDUP
NATIONAL WEATHER SERVICE SALT LAKE CITY UT
300 PM MDT SUN MAY 27 2018

UTZ001>011-023>025-272200-

NORTHERN UTAH

CITY           SKY/WX    TMP DP  RH WIND       PRES   REMARKS
BRIGHAM CITY   MOSUNNY   63  46  52 S3        29.98R
HILL AFB       LGT RAIN  58  48  71 W8        29.99S
LOGAN          LGT RAIN  67  46  47 CALM      29.95F
OGDEN          LGT RAIN  59  48  67 S8        29.99R
SALT LAKE CITY PTSUNNY   67  48  50 NW16G24   29.95F
TOOELE VALLEY  LGT RAIN  55  52  88 N12       29.99S
WENDOVER       CLOUDY    58  48  69 W7        30.01F
HEBER CITY     MOCLDY    64  32  29 S10G16    29.94S
WEST JORDAN    PTSUNNY   59  49  70 NW17      29.98R

$$

UTZ011>015-024>027-272200-

CENTRAL/NORTHEAST UTAH

CITY           SKY/WX    TMP DP  RH WIND       PRES   REMARKS
PROVO AIRPORT  CLOUDY    58  48  69 SW13      29.98R
MOAB/CANYONLAN SUNNY     79  14   8 W12G22    29.83F
DELTA          CLOUDY    61  43  51 N13G20    30.02S
PRICE          MOSUNNY   73  24  16 S13G25    29.93F
ROOSEVELT      SUNNY     79  18  10 E5G17     29.91F
VERNAL         SUNNY     80  13   8 S14G23    29.88F

$$

UTZ013>016-019>022-027-272200-

SOUTHERN UTAH

CITY           SKY/WX    TMP DP  RH WIND       PRES   REMARKS
BRYCE CANYON   CLOUDY    57  26  30 S16G26    30.09R
CEDAR CITY     PTSUNNY   71  30  21 SE15G23   29.97R
MILFORD        MOSUNNY   72  34  24 MISG      29.95F
ST GEORGE      CLOUDY    82  30  15 W9G18     29.86S
HANKSVILLE     SUNNY     81  21  11 E8G20     29.88F
BLANDING         N/A     72  18  13 SW13G21   30.04F

$$

REGIONAL REPORTS     COLORADO/ARIZONA

CITY           SKY/WX    TMP DP  RH WIND       PRES   REMARKS
CRAIG, CO      SUNNY     80  28  15 VRB3      29.90F
GRAND JUNCTION SUNNY     83  18   9 NW14G22   29.82F
RIFLE, CO      SUNNY     83  11   6 W15       29.84F
MONTROSE, CO   SUNNY     80  12   7 VRB7      29.88F
CORTEZ, CO     SUNNY     79  18  10 S10G29    29.95F
COLORADO CITY    N/A     73  27  17 NW6       29.97F
PAGE, AZ       MOSUNNY   79  21  11 VRB7      29.89F
GRAND CANYON   MOSUNNY   69  20  15 SW12G18   30.05S
KINGMAN, AZ    SUNNY     81  32  17 VRB5      29.91F
FLAGSTAFF, AZ  SUNNY     66  24  20 SW17G23   30.06R

$$

REGIONAL REPORTS    NEVADA/IDAHO/WYOMING

CITY           SKY/WX    TMP DP  RH WIND       PRES   REMARKS
LAS VEGAS, NV  MOSUNNY   86  37  17 S12       29.83F
ELY, NY        CLOUDY    56  41  57 SW12      30.02S
ELKO, NV       LGT RAIN  52  47  83 E5        30.09R
POCATELLO, ID  CLOUDY    63  50  62 SW16G22   30.00S
BURLEY, ID     MOSUNNY   69  50  50 W13G20    29.98F
FORT BRIDGER,    N/A     74  14  10 S17G28    29.99F
EVANSTON, WY   MOSUNNY   63  38  39 SW20G30   30.00F
ROCK SPRINGS,  PTSUNNY   70  35  27 NE24G35   29.96R

$$



USA.gov is the U.S. government's official web portal to all federal, state and local government web resources and services.